Regional Weather Roundup
Issued by NWS

Home | Current Version | Previous Version | Text Only | Print | Product List | Glossary On
Versions: 1 2 3 4 5 6 7 8 9 10 11 12 13 14 15 16 17 18 19 20 21 22 23 24 25 26 27 28 29 30 31 32 33 34 35 36 37 38 39 40 41 42 43 44 45 46 47 48 49 50
000
ASPQ40 PGUM 242012
RWRPQ
WEATHER ROUNDUP FOR THE MARIANAS AND MICRONESIA
NATIONAL WEATHER SERVICE TIYAN GU
600 AM CHST SAT MAR 25 2017

GUZ001>004-242100-
MARIANA ISLANDS-

CITY           SKY/WX    TMP DP  RH WIND       PRES   REMARKS
GUAM AIRPORT   CLEAR     79  73  83 SE6       29.86R
ANDERSEN AFB   CLEAR     77  72  83 SE6       29.88R
ROTA AIRPORT   NOT AVBL
TINIAN AP      PTCLDY    75  73  94 CALM      29.82
SAIPAN AP      CLOUDY    77  73  88 NE3       29.89R

$$

PMZ161-242100-
REPUBLIC OF PALAU-

CITY           SKY/WX    TMP DP  RH WIND       PRES   REMARKS
KOROR AP       MOCLDY    81  75  83 E7        29.82S
KOROR WSO      PTCLDY    81  73  78 NE5       29.83S

$$

PMZ171>174-242100-
FEDERATED STATES OF MICRONESIA-

CITY           SKY/WX    TMP DP  RH WIND       PRES   REMARKS
YAP AIRPORT    MOCLDY    81  75  83 VRB5      29.81S
CHUUK AP       CLOUDY    81  77  89 VRB6      29.85R
POHNPEI AP     NOT AVBL
POHNPEI WSO    NOT AVBL
KOSRAE AP      NOT AVBL

$$

PMZ181-242100-
REPUBLIC OF THE MARSHALL ISLANDS-

CITY           SKY/WX    TMP DP  RH WIND       PRES   REMARKS
KWAJALEIN AP   MOSUNNY   82  72  69 E20       29.91R
MAJURO AP      NOT AVBL
MAJURO WSO     MOSUNNY   84  75  74 NE17      29.87R HX  92

$$




USA.gov is the U.S. government's official web portal to all federal, state and local government web resources and services.